Language: 


Des rapports , des résumés tant et plus, au choix de chacun....


Données statistiques de la station
Quotidien Rapport Janvier 14, 2018 Unités:  Métrique    Anglais   les deux
« Précédent Jour
Suivant Jour »
Quotidien Hebdomadaire Mensuel Annuel Actuel
  Haut: Bas: Moyen:
Température: -17.8 °C -17.6 °C -16.4 °C
Pt de rosée: -17.8 °C -17.2 °C -16.6 °C
Humidité: Humidity % 83 % 94 %
Vitesse du vent: 0 km/h 0 km/h 4 km/h
Rafales: 0 km/h - -
Vent:- - East
Pression: 0 hPa 34405.1 hPa -
Précipitation: 0 mm    
Historical Graphs
 
 
Données statistiques pour Janvier 14, 2018
Heure Température Point de rosée Pression Vent Vitesse du vent Refales Humidité Pluie (taux horaire)
-17.8 °C -17.8 °C 0 hPa Calm     Humidity % 0 mm
00:20 -16.2 °C -16.7 °C 34476.3 hPa ENE 15.6 km/h 19.2 km/h 93 % 0 mm
00:26 -16.2 °C -16.7 °C 34476.3 hPa NE 12.7 km/h 19.2 km/h 94 % 0 mm
00:32 -16.2 °C -16.7 °C 34476.3 hPa NE 12.2 km/h 18.7 km/h 94 % 0 mm
00:51 -16.4 °C -16.7 °C 34476.3 hPa ENE 12.2 km/h 16.9 km/h 93 % 0 mm
01:02 -16.5 °C -16.7 °C 34476.3 hPa ENE 12.7 km/h 15.6 km/h 94 % 0 mm
01:11 -16.6 °C -16.7 °C 34476.3 hPa NE 14 km/h 16.3 km/h 95 % 0 mm
01:20 -16.6 °C -16.7 °C 34476.3 hPa NE 12.7 km/h 15.6 km/h 95 % 0 mm
01:42 -16.7 °C -16.7 °C 34428.8 hPa ENE 11.6 km/h 14.5 km/h 95 % 0 mm
01:47 -16.7 °C -16.7 °C 34428.8 hPa East 14.5 km/h 14.5 km/h 96 % 0 mm
01:52 -16.7 °C -16.7 °C 34428.8 hPa Calm   15 km/h 96 % 0 mm
01:58 -16.8 °C -17.2 °C 34428.8 hPa ENE 14 km/h 14.5 km/h 96 % 0 mm
02:11 -16.8 °C -17.2 °C 34428.8 hPa ENE 14 km/h 15.6 km/h 97 % 0 mm
02:17 -16.8 °C -17.2 °C 34428.8 hPa ENE 12.7 km/h 15.6 km/h 97 % 0 mm
02:32 -16.8 °C -16.7 °C 34428.8 hPa ENE 11.1 km/h 16.9 km/h 98 % 0 mm
02:40 -16.8 °C -16.7 °C 34428.8 hPa NE 12.2 km/h 16.9 km/h 98 % 0 mm
02:49 -16.9 °C -16.7 °C 34428.8 hPa Calm   15.6 km/h 98 % 0 mm
02:55 -16.9 °C -16.7 °C 34428.8 hPa NE 12.2 km/h 14 km/h 98 % 0 mm
03:00 -16.9 °C -16.7 °C 34428.8 hPa NE 12.2 km/h 14 km/h 98 % 0 mm
03:18 -17.1 °C -17.2 °C 34428.8 hPa NNE 6.4 km/h 12.2 km/h 98 % 0 mm
03:23 -17.1 °C -17.2 °C 34428.8 hPa Calm   14.5 km/h 98 % 0 mm
03:30 -17.2 °C -17.2 °C 34428.8 hPa NE 2.3 km/h 12.2 km/h 98 % 0 mm
03:36 -17.2 °C -17.2 °C 34428.8 hPa NE 7.6 km/h 14 km/h 98 % 0 mm
03:44 -17.2 °C -17.2 °C 34428.8 hPa NE 14.5 km/h 15.6 km/h 98 % 0 mm
03:53 -17.2 °C -17.2 °C 34428.8 hPa NE 12.7 km/h 17.9 km/h 98 % 0 mm
03:58 -17.2 °C -17.2 °C 34405.1 hPa NE 6.4 km/h 17.9 km/h 98 % 0 mm
04:16 -17.3 °C -17.2 °C 34428.8 hPa Calm   15.6 km/h 98 % 0 mm
04:28 -17.3 °C -17.2 °C 34428.8 hPa Calm   14.5 km/h 98 % 0 mm
04:35 -17.3 °C -17.2 °C 34428.8 hPa NNW 12.2 km/h 16.3 km/h 98 % 0 mm
04:42 -17.3 °C -17.2 °C 34428.8 hPa NE 12.7 km/h 16.3 km/h 98 % 0 mm
04:49 -17.3 °C -17.2 °C 34428.8 hPa NE 12.7 km/h 15.6 km/h 98 % 0 mm
04:57 -17.3 °C -17.2 °C 34428.8 hPa NE 6.9 km/h 14.5 km/h 98 % 0 mm
05:02 -17.4 °C -17.2 °C 34428.8 hPa NNE 10.3 km/h 14 km/h 98 % 0 mm
05:08 -17.4 °C -17.2 °C 34428.8 hPa NNE 8.9 km/h 11.6 km/h 98 % 0 mm
05:13 -17.4 °C -17.2 °C 34405.1 hPa NE 8 km/h 10.3 km/h 98 % 0 mm
05:25 -17.5 °C -17.2 °C 34405.1 hPa NNE 8.9 km/h 9.3 km/h 98 % 0 mm
05:35 -17.5 °C -17.2 °C 34476.3 hPa NE 2.9 km/h 10.3 km/h 98 % 0 mm
05:42 -17.4 °C -17.2 °C 34428.8 hPa NE 9.3 km/h 9.8 km/h 98 % 0 mm
05:48 -17.4 °C -17.2 °C 34428.8 hPa NNE 9.3 km/h 9.8 km/h 98 % 0 mm
05:54 -17.5 °C -17.2 °C 34428.8 hPa NNE 6.4 km/h 10.3 km/h 98 % 0 mm
05:59 -17.5 °C -17.2 °C 34428.8 hPa NNE 9.3 km/h 10.3 km/h 98 % 0 mm
06:06 -17.5 °C -17.2 °C 34428.8 hPa North 11.6 km/h 12.7 km/h 98 % 0 mm
06:11 -17.5 °C -17.2 °C 34428.8 hPa NE 2.9 km/h 14.5 km/h 98 % 0 mm
06:16 -17.5 °C -17.2 °C 34428.8 hPa NNW 9.3 km/h 14.5 km/h 98 % 0 mm
06:25 -17.6 °C -17.2 °C 34428.8 hPa NNE 6.9 km/h 11.6 km/h 98 % 0 mm
06:31 -17.6 °C -17.2 °C 34428.8 hPa Calm   14 km/h 98 % 0 mm
06:37 -17.6 °C -17.2 °C 34428.8 hPa NE 11.1 km/h 11.1 km/h 98 % 0 mm
06:42 -17.6 °C -17.2 °C 34428.8 hPa NNE 10.3 km/h 11.1 km/h 98 % 0 mm
07:00 -17.6 °C -17.2 °C 34428.8 hPa Calm   10.3 km/h 98 % 0 mm
07:11 -17.6 °C -17.2 °C 34476.3 hPa NNE 9.8 km/h 11.1 km/h 98 % 0 mm
07:19 -17.6 °C -17.2 °C 34476.3 hPa North 6.4 km/h 10.3 km/h 98 % 0 mm
07:28 -17.6 °C -17.2 °C 34428.8 hPa Calm   12.2 km/h 98 % 0 mm
07:41 -17.6 °C -17.2 °C 34428.8 hPa NE 7.6 km/h 10.3 km/h 98 % 0 mm
07:46 -17.6 °C -17.2 °C 34428.8 hPa NNE 6.4 km/h 9.8 km/h 98 % 0 mm
07:56 -17.6 °C -17.2 °C 34428.8 hPa Calm   9.8 km/h 98 % 0 mm
08:11 -17.6 °C -17.2 °C 34428.8 hPa NNE 9.3 km/h 11.6 km/h 98 % 0 mm
08:17 -17.6 °C -17.2 °C 34428.8 hPa NNE 6.9 km/h 11.6 km/h 98 % 0 mm
08:22 -17.5 °C -17.2 °C 34428.8 hPa North 10.3 km/h 14.5 km/h 98 % 0 mm
08:29 -17.6 °C -17.2 °C 34428.8 hPa NE 6.9 km/h 14 km/h 98 % 0 mm
08:39 -17.6 °C -17.2 °C 34428.8 hPa Calm   8.9 km/h 98 % 0 mm
08:44 -17.6 °C -17.2 °C 34405.1 hPa Calm   8.9 km/h 98 % 0 mm
08:56 -17.6 °C -17.2 °C 34428.8 hPa Calm     98 % 0 mm
09:18 -17.4 °C -17.2 °C 34428.8 hPa Calm     98 % 0 mm
09:28 -17.3 °C -17.2 °C 34428.8 hPa Calm   8 km/h 98 % 0 mm
09:36 -17.3 °C -17.2 °C 34428.8 hPa Calm   8 km/h 98 % 0 mm
09:42 -17.2 °C -17.2 °C 34428.8 hPa Calm   2.3 km/h 98 % 0 mm
09:51 -17.2 °C -17.2 °C 34428.8 hPa Calm   6.9 km/h 98 % 0 mm
09:56 -17.2 °C -17.2 °C 34428.8 hPa Calm   10.3 km/h 98 % 0 mm
10:01 -17.1 °C -17.2 °C 34428.8 hPa Calm   10.3 km/h 98 % 0 mm
10:09 -17.1 °C -17.2 °C 34428.8 hPa Calm   2.9 km/h 98 % 0 mm
10:20 -17.1 °C -17.2 °C 34428.8 hPa ENE 6.9 km/h 7.6 km/h 98 % 0 mm
10:30 -17.1 °C -17.2 °C 34428.8 hPa Calm   7.6 km/h 98 % 0 mm
10:50 -16.7 °C -16.7 °C 34476.3 hPa Calm   8 km/h 98 % 0 mm
10:58 -16.7 °C -16.7 °C 34476.3 hPa Calm   5.1 km/h 98 % 0 mm
11:12 -16.7 °C -16.7 °C 34476.3 hPa Calm   8.9 km/h 98 % 0 mm
11:18 -16.7 °C -16.7 °C 34476.3 hPa Calm   8 km/h 98 % 0 mm
11:27 -16.7 °C -16.7 °C 34476.3 hPa Calm   8.9 km/h 98 % 0 mm
11:33 -16.7 °C -16.7 °C 34476.3 hPa East 6.9 km/h 6.9 km/h 98 % 0 mm
11:40 -16.7 °C -16.7 °C 34476.3 hPa East 5.1 km/h 9.8 km/h 98 % 0 mm
11:47 -16.7 °C -16.7 °C 34476.3 hPa Calm   5.1 km/h 98 % 0 mm
11:55 -15.7 °C -15.6 °C 34476.3 hPa Calm   12.7 km/h 98 % 0 mm
12:00 -15.6 °C -15.6 °C 34428.8 hPa Calm   12.7 km/h 98 % 0 mm
12:06 -15.6 °C -15.6 °C 34428.8 hPa ESE 11.1 km/h 12.2 km/h 98 % 0 mm
12:21 -15.4 °C -15.6 °C 34428.8 hPa Calm   14.5 km/h 98 % 0 mm
12:26 -15.4 °C -15.6 °C 34476.3 hPa ESE 7.6 km/h 12.2 km/h 98 % 0 mm
12:34 -15.3 °C -15.6 °C 34476.3 hPa SE 11.6 km/h 15.6 km/h 97 % 0 mm
12:53 -15.1 °C -15.6 °C 34428.8 hPa SE 6.9 km/h 10.3 km/h 96 % 0 mm
12:59 -15.1 °C -15.6 °C 34428.8 hPa Calm   14 km/h 95 % 0 mm
13:08 -15 °C -15 °C 34428.8 hPa SSE 8 km/h 8 km/h 95 % 0 mm
13:21 -14.9 °C -15 °C 34428.8 hPa Calm   12.7 km/h 95 % 0 mm
13:29 -14.9 °C -15.6 °C 34428.8 hPa Calm   14 km/h 93 % 0 mm
13:48 -14.8 °C -15.6 °C 34428.8 hPa Calm   11.1 km/h 91 % 0 mm
14:01 -14.7 °C -15 °C 34428.8 hPa South 7.6 km/h 14 km/h 91 % 0 mm
14:07 -14.7 °C -15.6 °C 34428.8 hPa Calm   15 km/h 90 % 0 mm
14:21 -14.7 °C -15.6 °C 34428.8 hPa Calm   19.6 km/h 88 % 0 mm
14:32 -14.7 °C -15.6 °C 34405.1 hPa South 9.8 km/h 14.5 km/h 88 % 0 mm
14:55 -14.7 °C -15.6 °C 34428.8 hPa South 9.8 km/h 16.9 km/h 87 % 0 mm
15:00 -14.6 °C -15.6 °C 34428.8 hPa Calm   16.9 km/h 88 % 0 mm
15:08 -14.4 °C -15.6 °C 34428.8 hPa SSE 5.6 km/h 14.5 km/h 87 % 0 mm
15:14 -14.3 °C -15.6 °C 34428.8 hPa Calm   10.3 km/h 86 % 0 mm
15:23 -14.1 °C -15 °C 34428.8 hPa SE 8.9 km/h 15 km/h 86 % 0 mm
15:38 -14 °C -15 °C 34428.8 hPa Calm   6.9 km/h 85 % 0 mm
15:43 -13.9 °C -15 °C 34428.8 hPa Calm   9.8 km/h 85 % 0 mm
15:51 -14 °C -15.6 °C 34428.8 hPa SSE 8 km/h 14.5 km/h 84 % 0 mm
15:56 -14.1 °C -15.6 °C 34405.1 hPa South 7.6 km/h 14.5 km/h 83 % 0 mm
16:03 -14.2 °C -15.6 °C 34405.1 hPa Calm   15 km/h 83 % 0 mm
16:13 -14.3 °C -15.6 °C 34405.1 hPa Calm   12.7 km/h 83 % 0 mm
16:21 -14.5 °C -15.6 °C 34405.1 hPa Calm   9.3 km/h 84 % 0 mm
16:32 -14.5 °C -15.6 °C 34405.1 hPa Calm   9.3 km/h 84 % 0 mm
16:40 -14.5 °C -15.6 °C 34405.1 hPa Calm   8 km/h 84 % 0 mm
16:58 -14.8 °C -16.1 °C 34428.8 hPa South 2.3 km/h 7.6 km/h 86 % 0 mm
17:05 -15.2 °C -16.1 °C 34428.8 hPa Calm   7.6 km/h 87 % 0 mm
17:10 -15.2 °C -16.1 °C 34428.8 hPa Calm   2.3 km/h 87 % 0 mm
17:16 -15.2 °C -16.1 °C 34428.8 hPa Calm     87 % 0 mm
17:29 -15.6 °C -16.7 °C 34405.1 hPa Calm     88 % 0 mm
17:39 -15.7 °C -16.7 °C 34405.1 hPa Calm     89 % 0 mm
17:45 -15.7 °C -16.7 °C 34428.8 hPa Calm     90 % 0 mm
17:50 -15.7 °C -16.7 °C 34428.8 hPa Calm     90 % 0 mm
18:07 -15.8 °C -16.1 °C 34428.8 hPa Calm   11.1 km/h 92 % 0 mm
18:15 -15.7 °C -16.1 °C 34428.8 hPa Calm   10.3 km/h 93 % 0 mm
18:24 -15.7 °C -16.1 °C 34428.8 hPa SSW 3.4 km/h 9.3 km/h 94 % 0 mm
18:35 -15.6 °C -16.1 °C 34428.8 hPa Calm   6.9 km/h 94 % 0 mm
18:41 -15.5 °C -16.1 °C 34428.8 hPa Calm   9.3 km/h 94 % 0 mm
18:48 -15.4 °C -16.1 °C 34428.8 hPa SSW 2.9 km/h 9.3 km/h 94 % 0 mm
19:06 -15.4 °C -16.1 °C 34428.8 hPa Calm   8 km/h 94 % 0 mm
19:12 -15.3 °C -16.1 °C 34428.8 hPa Calm   7.6 km/h 94 % 0 mm
19:27 -15.3 °C -15.6 °C 34428.8 hPa South 7.6 km/h 11.1 km/h 94 % 0 mm
19:33 -15.2 °C -15.6 °C 34428.8 hPa Calm   9.8 km/h 94 % 0 mm
19:42 -15.2 °C -15.6 °C 34428.8 hPa Calm   8 km/h 94 % 0 mm
19:56 -15.3 °C -16.1 °C 34428.8 hPa Calm   9.8 km/h 94 % 0 mm
20:02 -15.4 °C -16.1 °C 34428.8 hPa Calm   6.9 km/h 94 % 0 mm
20:15 -15.7 °C -16.1 °C 34405.1 hPa Calm     93 % 0 mm
20:23 -15.9 °C -16.7 °C 34405.1 hPa Calm     92 % 0 mm
20:33 -16.2 °C -16.7 °C 34428.8 hPa Calm     92 % 0 mm
20:40 -16.3 °C -16.7 °C 34428.8 hPa Calm   6.4 km/h 93 % 0 mm
20:52 -16.5 °C -16.7 °C 34428.8 hPa Calm     93 % 0 mm
20:59 -16.7 °C -17.2 °C 34405.1 hPa Calm     93 % 0 mm
21:07 -16.6 °C -17.2 °C 34405.1 hPa Calm     94 % 0 mm
21:15 -16.7 °C -16.7 °C 34428.8 hPa Calm   6.9 km/h 95 % 0 mm
21:24 -16.7 °C -16.7 °C 34428.8 hPa South 3.4 km/h 9.8 km/h 96 % 0 mm
21:32 -16.8 °C -17.2 °C 34428.8 hPa Calm   7.6 km/h 97 % 0 mm
21:43 -16.8 °C -17.2 °C 34428.8 hPa Calm     97 % 0 mm
21:48 -16.9 °C -17.2 °C 34428.8 hPa Calm     97 % 0 mm
21:54 -16.9 °C -17.2 °C 34428.8 hPa Calm     97 % 0 mm
22:00 -16.9 °C -17.2 °C 34405.1 hPa Calm     97 % 0 mm
22:08 -16.9 °C -16.7 °C 34405.1 hPa Calm   6.9 km/h 98 % 0 mm
22:26 -17.2 °C -17.2 °C 34428.8 hPa Calm     97 % 0 mm
22:31 -17.3 °C -17.2 °C 34428.8 hPa Calm     98 % 0 mm
22:39 -17.4 °C -17.2 °C 34428.8 hPa Calm     98 % 0 mm
22:44 -17.4 °C -17.2 °C 34428.8 hPa Calm   6.9 km/h 98 % 0 mm
22:51 -17.3 °C -17.2 °C 34428.8 hPa Calm   7.6 km/h 98 % 0 mm
23:08 -17.3 °C -17.2 °C 34428.8 hPa Calm   2.3 km/h 98 % 0 mm
23:17 -17.3 °C -17.2 °C 34405.1 hPa Calm   6.9 km/h 98 % 0 mm
23:23 -17.2 °C -17.2 °C 34405.1 hPa Calm     98 % 0 mm
23:31 -17.2 °C -17.2 °C 34428.8 hPa West 7.6 km/h 10.3 km/h 98 % 0 mm
23:37 -17.2 °C -17.2 °C 34428.8 hPa Calm   12.2 km/h 98 % 0 mm
23:47 -17.3 °C -17.2 °C 34428.8 hPa Calm   11.1 km/h 98 % 0 mm
23:57 -17.6 °C -17.2 °C 34428.8 hPa Calm     98 % 0 mm
Le Gheer Warneton
Courtoisie de Weather Underground - 1.5 mb

Mise a jour : 17/02/2018 20:34:11
Généré par Cumulus 1.9.4 (1099)